When you browse on this site, cookies collect data to enhance your experience and personalize the content and advertising you see.
Visit our Privacy Policy to learn more. By continuing to use the site, you agree to this use of cookies and data.

Stündliche Wetter Qui Nhon

Heute, 12 Juli, Sonntag

Zeit Temperatur Niederschläge Wind Luftdruck Luftfeuchtigkeit
00:00 +28°C° 0 mm 2 m/S 754 mmHg 89%
01:00 +28°C° 0 mm 2 m/S 753 mmHg 87%
02:00 +28°C° 0 mm 2 m/S 753 mmHg 87%
03:00 +27°C° 0 mm 2 m/S 753 mmHg 87%
04:00 +27°C° 0 mm 1 m/S 752 mmHg 86%
05:00 +28°C° 0 mm 2 m/S 753 mmHg 83%
06:00 +29°C° 0 mm 2 m/S 753 mmHg 80%
07:00 +30°C° 0 mm 2 m/S 753 mmHg 78%
08:00 +33°C° 0 mm 3 m/S 753 mmHg 69%
09:00 +35°C° 0 mm 3 m/S 753 mmHg 61%
10:00 +37°C° 0 mm 4 m/S 753 mmHg 52%
11:00 +38°C° 0 mm 4 m/S 753 mmHg 50%
12:00 +39°C° 0 mm 5 m/S 752 mmHg 47%
13:00 +40°C° 0 mm 6 m/S 752 mmHg 45%
14:00 +39°C° 0 mm 6 m/S 751 mmHg 49%
15:00 +38°C° 0 mm 6 m/S 751 mmHg 54%
16:00 +35°C° 0 mm 6 m/S 751 mmHg 59%
17:00 +34°C° 0.3 mm 5 m/S 751 mmHg 66%
18:00 +32°C° 0.3 mm 5 m/S 751 mmHg 74%
19:00 +30°C° 0.3 mm 4 m/S 752 mmHg 81%
20:00 +30°C° 0.4 mm 4 m/S 752 mmHg 82%
21:00 +29°C° 0.4 mm 4 m/S 753 mmHg 84%
22:00 +29°C° 0.4 mm 4 m/S 754 mmHg 85%
23:00 +29°C° 0.3 mm 4 m/S 754 mmHg 85%

Morgen, 13 Juli, Montag

Zeit Temperatur Niederschläge Wind Luftdruck Luftfeuchtigkeit
00:00 +28°C° 0.3 mm 3 m/S 754 mmHg 85%
01:00 +28°C° 0.3 mm 3 m/S 754 mmHg 86%
02:00 +28°C° 0.2 mm 3 m/S 753 mmHg 87%
03:00 +28°C° 0.2 mm 2 m/S 753 mmHg 87%
04:00 +27°C° 0.2 mm 2 m/S 753 mmHg 88%
05:00 +28°C° 0 mm 2 m/S 753 mmHg 85%
06:00 +29°C° 0 mm 2 m/S 753 mmHg 82%
07:00 +30°C° 0 mm 2 m/S 753 mmHg 79%
08:00 +32°C° 0 mm 2 m/S 754 mmHg 68%
09:00 +36°C° 0 mm 2 m/S 754 mmHg 57%
10:00 +38°C° 0 mm 2 m/S 754 mmHg 47%
11:00 +38°C° 0 mm 3 m/S 753 mmHg 46%
12:00 +40°C° 0 mm 4 m/S 753 mmHg 46%
13:00 +40°C° 0 mm 5 m/S 752 mmHg 45%
14:00 +39°C° 0.1 mm 6 m/S 752 mmHg 49%
15:00 +38°C° 0.1 mm 6 m/S 751 mmHg 53%
16:00 +36°C° 0.1 mm 7 m/S 751 mmHg 56%
17:00 +34°C° 0.2 mm 6 m/S 752 mmHg 65%
18:00 +32°C° 0.2 mm 5 m/S 752 mmHg 74%
19:00 +29°C° 0.2 mm 5 m/S 753 mmHg 83%
20:00 +29°C° 0 mm 5 m/S 754 mmHg 85%
21:00 +28°C° 0 mm 5 m/S 754 mmHg 87%
22:00 +28°C° 0 mm 4 m/S 755 mmHg 90%
23:00 +28°C° 0 mm 4 m/S 754 mmHg 90%

übermorgen, 14 Juli, Dienstag

Zeit Temperatur Niederschläge Wind Luftdruck Luftfeuchtigkeit
00:00 +27°C° 0 mm 3 m/S 754 mmHg 90%
01:00 +27°C° 0 mm 3 m/S 754 mmHg 90%
02:00 +27°C° 0 mm 2 m/S 754 mmHg 89%
03:00 +27°C° 0 mm 2 m/S 753 mmHg 89%
04:00 +26°C° 0 mm 2 m/S 753 mmHg 89%
05:00 +27°C° 0 mm 2 m/S 753 mmHg 85%
06:00 +28°C° 0 mm 1 m/S 753 mmHg 82%
07:00 +29°C° 0 mm 1 m/S 754 mmHg 79%
08:00 +31°C° 0 mm 1 m/S 754 mmHg 70%
09:00 +34°C° 0 mm 2 m/S 754 mmHg 61%
10:00 +36°C° 0 mm 2 m/S 754 mmHg 52%
11:00 +37°C° 0 mm 2 m/S 754 mmHg 51%
12:00 +37°C° 0 mm 3 m/S 753 mmHg 49%
13:00 +38°C° 0 mm 4 m/S 752 mmHg 48%
14:00 +36°C° 0.1 mm 4 m/S 752 mmHg 54%
15:00 +35°C° 0.1 mm 5 m/S 752 mmHg 60%
16:00 +34°C° 0.1 mm 5 m/S 751 mmHg 66%
17:00 +33°C° 0.1 mm 4 m/S 752 mmHg 72%
18:00 +30°C° 0.1 mm 4 m/S 752 mmHg 79%
19:00 +29°C° 0.1 mm 4 m/S 753 mmHg 85%
20:00 +29°C° 0 mm 4 m/S 753 mmHg 87%
21:00 +28°C° 0 mm 4 m/S 754 mmHg 89%
22:00 +28°C° 0 mm 4 m/S 754 mmHg 91%
23:00 +28°C° 0 mm 4 m/S 754 mmHg 91%

15 Juli, Mittwoch

Zeit Temperatur Niederschläge Wind Luftdruck Luftfeuchtigkeit
00:00 +27°C° 0 mm 3 m/S 753 mmHg 91%
01:00 +27°C° 0 mm 3 m/S 753 mmHg 91%
02:00 +27°C° 0 mm 2 m/S 753 mmHg 91%
03:00 +27°C° 0 mm 2 m/S 753 mmHg 91%
04:00 +27°C° 0 mm 2 m/S 753 mmHg 90%
05:00 +28°C° 0 mm 2 m/S 753 mmHg 86%
06:00 +29°C° 0 mm 2 m/S 753 mmHg 81%
07:00 +30°C° 0 mm 2 m/S 754 mmHg 76%
08:00 +32°C° 0 mm 2 m/S 753 mmHg 68%
09:00 +35°C° 0 mm 2 m/S 753 mmHg 59%
10:00 +37°C° 0 mm 3 m/S 753 mmHg 51%
11:00 +37°C° 0 mm 3 m/S 753 mmHg 51%
12:00 +37°C° 0 mm 4 m/S 752 mmHg 50%
13:00 +37°C° 0 mm 4 m/S 752 mmHg 50%
14:00 +36°C° 0 mm 5 m/S 751 mmHg 55%
15:00 +35°C° 0 mm 5 m/S 751 mmHg 60%
16:00 +35°C° 0 mm 6 m/S 750 mmHg 65%
17:00 +33°C° 0.1 mm 5 m/S 751 mmHg 70%
18:00 +32°C° 0.1 mm 5 m/S 751 mmHg 76%
19:00 +29°C° 0.1 mm 5 m/S 752 mmHg 82%
20:00 +29°C° 0.1 mm 5 m/S 752 mmHg 84%
21:00 +29°C° 0.1 mm 5 m/S 753 mmHg 87%
22:00 +28°C° 0.1 mm 5 m/S 753 mmHg 90%
23:00 +28°C° 0 mm 4 m/S 753 mmHg 91%

16 Juli, Donnerstag

Zeit Temperatur Niederschläge Wind Luftdruck Luftfeuchtigkeit
00:00 +28°C° 0 mm 4 m/S 752 mmHg 91%
01:00 +28°C° 0 mm 3 m/S 752 mmHg 91%
02:00 +27°C° 0 mm 3 m/S 752 mmHg 91%
03:00 +27°C° 0 mm 3 m/S 752 mmHg 91%
04:00 +27°C° 0 mm 2 m/S 752 mmHg 91%
05:00 +28°C° 0 mm 2 m/S 752 mmHg 88%
06:00 +29°C° 0 mm 2 m/S 753 mmHg 85%
07:00 +29°C° 0 mm 2 m/S 753 mmHg 82%
08:00 +31°C° 0 mm 3 m/S 753 mmHg 72%
09:00 +35°C° 0 mm 4 m/S 753 mmHg 63%
10:00 +37°C° 0 mm 4 m/S 753 mmHg 54%
11:00 +36°C° 0 mm 5 m/S 752 mmHg 55%
12:00 +36°C° 0 mm 6 m/S 752 mmHg 56%
13:00 +36°C° 0 mm 6 m/S 751 mmHg 57%
14:00 +36°C° 0 mm 7 m/S 751 mmHg 58%
15:00 +36°C° 0 mm 7 m/S 751 mmHg 60%
16:00 +35°C° 0 mm 7 m/S 750 mmHg 62%
17:00 +34°C° 0 mm 7 m/S 751 mmHg 70%
18:00 +32°C° 0 mm 7 m/S 751 mmHg 77%
19:00 +30°C° 0 mm 6 m/S 752 mmHg 84%
20:00 +29°C° 0 mm 6 m/S 752 mmHg 86%
21:00 +29°C° 0 mm 6 m/S 753 mmHg 89%
22:00 +28°C° 0 mm 5 m/S 754 mmHg 91%
23:00 +28°C° 0 mm 5 m/S 753 mmHg 91%

17 Juli, Freitag

Zeit Temperatur Niederschläge Wind Luftdruck Luftfeuchtigkeit
00:00 +28°C° 0 mm 4 m/S 753 mmHg 92%
01:00 +28°C° 0 mm 4 m/S 753 mmHg 92%
02:00 +28°C° 0.1 mm 3 m/S 753 mmHg 91%
03:00 +27°C° 0.1 mm 3 m/S 753 mmHg 91%
04:00 +27°C° 0.1 mm 2 m/S 753 mmHg 91%
05:00 +28°C° 0 mm 2 m/S 753 mmHg 86%
06:00 +29°C° 0 mm 2 m/S 753 mmHg 81%
07:00 +30°C° 0 mm 2 m/S 754 mmHg 76%
08:00 +33°C° 0 mm 3 m/S 754 mmHg 68%
09:00 +35°C° 0 mm 3 m/S 754 mmHg 60%
10:00 +37°C° 0 mm 4 m/S 754 mmHg 53%
11:00 +37°C° 0 mm 4 m/S 753 mmHg 52%
12:00 +37°C° 0 mm 4 m/S 753 mmHg 52%
13:00 +37°C° 0 mm 5 m/S 752 mmHg 52%
14:00 +37°C° 0.1 mm 5 m/S 752 mmHg 54%
15:00 +36°C° 0.1 mm 5 m/S 751 mmHg 56%
16:00 +36°C° 0.1 mm 6 m/S 751 mmHg 58%
17:00 +34°C° 0.1 mm 6 m/S 752 mmHg 67%
18:00 +32°C° 0.1 mm 6 m/S 752 mmHg 76%
19:00 +29°C° 0.1 mm 6 m/S 752 mmHg 85%
20:00 +29°C° 0.1 mm 5 m/S 753 mmHg 87%
21:00 +29°C° 0.1 mm 5 m/S 754 mmHg 88%
22:00 +28°C° 0.1 mm 5 m/S 754 mmHg 90%
23:00 +28°C° 0.6 mm 5 m/S 754 mmHg 90%
Mehr zeigen